Pittsfield, IL

4:19 AM CDT on May 26, 2017 (GMT -0500)
Pittsfield Penstone Municipal

Weather History for KPPQ - January, 2009

Change the Weather History Date:

Friday, January 23, 2009

  Actual Average (KUIN) Record (KUIN)
Temperature  
Mean Temperature 32 °F -  
Max Temperature 42 °F 36 °F 72 °F (1909)
Min Temperature 21 °F 20 °F -16 °F (1936)
Degree Days  
Heating Degree Days 32    
Moisture  
Dew Point 22 °F    
Average Humidity 66    
Maximum Humidity 80    
Minimum Humidity 53    
Precipitation  
Precipitation 0.00 in - - ()
Sea Level Pressure  
Sea Level Pressure 30.04 in    
Wind  
Wind Speed 10 mph (NW)    
Max Wind Speed 23 mph    
Max Gust Speed 29 mph    
Visibility 10 miles    
Events      
Averages and records for this station are not official NWS values.
T = Trace of Precipitation, MM = Missing Value Source: NWS Daily Summary

Daily Weather History Graph

Daily Weather History Graph

Search for Another Location

Airport or City:

Trip Planner

Search our weather history database for the weather conditions in past years. The results will help you decide how hot, cold, wet, or windy it might be!

Date:

Astronomy

Jan. 23, 2009 Rise Set
Actual Time 7:17 AM CST 5:12 PM CST
Civil Twilight 6:48 AM CST 5:41 PM CST
Nautical Twilight 6:16 AM CST 6:14 PM CST
Astronomical Twilight 5:44 AM CST 6:46 PM CST
Moon 5:41 AM CST (1/23) 2:45 PM CST (1/23)
Length of Visible Light 10h 52m
Length of Day
9h 54m
Waning Crescent, 6% of the Moon is Illuminated
Jan 23
Waning Crescent
Jan 26
New
Feb 2
First Quarter
Feb 9
Full
Feb 16
Last Quarter

Hourly Weather History & Observations

Time (CST) Temp. Windchill Dew Point Humidity Pressure Visibility Wind Dir Wind Speed Gust Speed Precip Events Conditions
12:06 AM 42.8 °F 39.3 °F 26.6 °F 53% 29.81 in 10.0 mi SSW 5.8 mph - N/A   Unknown
12:26 AM 42.8 °F 38.6 °F 26.6 °F 53% 29.81 in 10.0 mi SSW 6.9 mph - N/A   Unknown
12:46 AM 41.0 °F 36.4 °F 26.6 °F 57% 29.80 in 10.0 mi SSW 6.9 mph - N/A   Unknown
1:06 AM 41.0 °F 35.8 °F 26.6 °F 57% 29.80 in 10.0 mi SSW 8.1 mph - N/A   Unknown
1:26 AM 41.0 °F 35.8 °F 26.6 °F 57% 29.79 in 10.0 mi South 8.1 mph - N/A   Unknown
1:46 AM 41.0 °F 36.4 °F 26.6 °F 57% 29.79 in 10.0 mi SSW 6.9 mph - N/A   Unknown
2:06 AM 39.2 °F 34.2 °F 26.6 °F 61% 29.80 in 10.0 mi SSW 6.9 mph - N/A   Unknown
2:26 AM 37.4 °F - 24.8 °F 60% 29.80 in 10.0 mi Calm Calm - N/A   Unknown
2:46 AM 39.2 °F - 24.8 °F 56% 29.80 in 10.0 mi Calm Calm - N/A   Unknown
3:06 AM 37.4 °F 33.8 °F 24.8 °F 60% 29.81 in 10.0 mi WSW 4.6 mph - N/A   Unknown
3:26 AM 35.6 °F 31.7 °F 24.8 °F 65% 29.81 in 10.0 mi WNW 4.6 mph - N/A   Unknown
3:46 AM 37.4 °F 33.8 °F 24.8 °F 60% 29.81 in 10.0 mi WNW 4.6 mph - N/A   Unknown
4:06 AM 35.6 °F 32.8 °F 24.8 °F 65% 29.82 in 10.0 mi WNW 3.5 mph - N/A   Unknown
4:46 AM 35.6 °F 32.8 °F 24.8 °F 65% 29.83 in 10.0 mi WNW 3.5 mph - N/A   Unknown
5:06 AM 35.6 °F 30.7 °F 24.8 °F 65% 29.83 in 10.0 mi NW 5.8 mph - N/A   Unknown
5:26 AM 33.8 °F 28.6 °F 26.6 °F 75% 29.85 in 10.0 mi NW 5.8 mph - N/A   Unknown
5:46 AM 35.6 °F 29.9 °F 26.6 °F 70% 29.85 in 10.0 mi NW 6.9 mph - N/A   Unknown
6:06 AM 35.6 °F 31.7 °F 26.6 °F 70% 29.87 in 10.0 mi WNW 4.6 mph - N/A   Unknown
6:26 AM 33.8 °F 27.0 °F 26.6 °F 75% 29.88 in 10.0 mi NW 8.1 mph - N/A   Unknown
6:46 AM 33.8 °F 27.7 °F 26.6 °F 75% 29.89 in 10.0 mi WNW 6.9 mph - N/A   Unknown
7:06 AM 33.8 °F 25.8 °F 26.6 °F 75% 29.91 in 10.0 mi NW 10.4 mph - N/A   Unknown
7:26 AM 32.0 °F 23.0 °F 26.6 °F 80% 29.92 in 10.0 mi NW 11.5 mph - N/A   Unknown
7:46 AM 33.8 °F 23.2 °F 24.8 °F 70% 29.94 in 10.0 mi NNW 17.3 mph 25.3 mph N/A   Unknown
8:06 AM 32.0 °F 21.6 °F 24.8 °F 75% 29.96 in 10.0 mi NNW 15.0 mph 19.6 mph N/A   Unknown
8:26 AM 32.0 °F 21.2 °F 24.8 °F 75% 29.98 in 10.0 mi NNW 16.1 mph 21.9 mph N/A   Unknown
8:46 AM 32.0 °F 21.6 °F 24.8 °F 75% 30.00 in 10.0 mi NNW 15.0 mph - N/A   Unknown
9:26 AM 32.0 °F 21.6 °F 24.8 °F 75% 30.02 in 10.0 mi NNW 15.0 mph 20.7 mph N/A   Unknown
9:46 AM 32.0 °F 21.2 °F 23.0 °F 69% 30.03 in 10.0 mi NNW 16.1 mph 24.2 mph N/A   Unknown
10:06 AM 32.0 °F 20.5 °F 23.0 °F 69% 30.04 in 10.0 mi NW 18.4 mph 23.0 mph N/A   Unknown
10:26 AM 32.0 °F 21.2 °F 23.0 °F 69% 30.06 in 10.0 mi NW 16.1 mph - N/A   Unknown
10:46 AM 32.0 °F 21.2 °F 23.0 °F 69% 30.07 in 10.0 mi NW 16.1 mph - N/A   Unknown
11:08 AM 32.0 °F 22.1 °F 21.2 °F 64% 30.08 in 10.0 mi NW 13.8 mph - N/A   Unknown
11:26 AM 33.8 °F 23.9 °F 21.2 °F 60% 30.08 in 10.0 mi NNW 15.0 mph 20.7 mph N/A   Unknown
11:46 AM 32.0 °F 19.5 °F 21.2 °F 64% 30.09 in 10.0 mi NNW 21.9 mph 28.8 mph N/A   Unknown
12:06 PM 30.2 °F 18.5 °F 19.4 °F 64% 30.08 in 10.0 mi NNW 17.3 mph 23.0 mph N/A   Unknown
12:26 PM 30.2 °F 17.8 °F 19.4 °F 64% 30.08 in 10.0 mi NNW 19.6 mph 25.3 mph N/A   Unknown
12:46 PM 30.2 °F 19.3 °F 19.4 °F 64% 30.11 in 10.0 mi NNW 15.0 mph - N/A   Unknown
1:06 PM 30.2 °F 18.5 °F 21.2 °F 69% 30.12 in 10.0 mi NW 17.3 mph 24.2 mph N/A   Unknown
1:26 PM 32.0 °F 20.8 °F 21.2 °F 64% 30.11 in 10.0 mi NNW 17.3 mph 21.9 mph N/A   Unknown
1:46 PM 30.2 °F 17.4 °F 21.2 °F 69% 30.14 in 10.0 mi NW 20.7 mph 25.3 mph N/A   Unknown
2:06 PM 30.2 °F 18.5 °F 21.2 °F 69% 30.14 in 10.0 mi NW 17.3 mph 20.7 mph N/A   Unknown
2:26 PM 32.0 °F 20.5 °F 21.2 °F 64% 30.14 in 10.0 mi NW 18.4 mph - N/A   Unknown
2:46 PM 30.2 °F 18.9 °F 21.2 °F 69% 30.16 in 10.0 mi NNW 16.1 mph 23.0 mph N/A   Unknown
3:06 PM 30.2 °F 18.9 °F 19.4 °F 64% 30.18 in 10.0 mi NW 16.1 mph 23.0 mph N/A   Unknown
3:26 PM 30.2 °F 19.3 °F 19.4 °F 64% 30.20 in 10.0 mi NW 15.0 mph 19.6 mph N/A   Unknown
3:46 PM 28.4 °F 14.4 °F 19.4 °F 69% 30.22 in 10.0 mi NNW 23.0 mph 26.5 mph N/A   Unknown
4:06 PM 28.4 °F 18.0 °F 19.4 °F 69% 30.23 in 10.0 mi NNW 12.7 mph - N/A   Unknown
4:46 PM 28.4 °F 17.5 °F 17.6 °F 64% 30.25 in 10.0 mi NNW 13.8 mph 19.6 mph N/A   Unknown
5:06 PM 28.4 °F 17.5 °F 17.6 °F 64% 30.26 in 10.0 mi NW 13.8 mph 21.9 mph N/A   Unknown
5:26 PM 28.4 °F 17.5 °F 17.6 °F 64% 30.26 in 10.0 mi NNW 13.8 mph - N/A   Unknown
5:46 PM 28.4 °F 18.5 °F 17.6 °F 64% 30.27 in 10.0 mi NW 11.5 mph - N/A   Unknown
6:06 PM 28.4 °F 15.8 °F 17.6 °F 64% 30.28 in 10.0 mi NNW 18.4 mph - N/A   Unknown
6:26 PM 26.6 °F 15.7 °F 17.6 °F 69% 30.30 in 10.0 mi NW 12.7 mph - N/A   Unknown
6:47 PM 26.6 °F 14.3 °F 15.8 °F 64% 30.31 in 10.0 mi NW 16.1 mph 19.6 mph N/A   Unknown
7:06 PM 26.6 °F 14.7 °F 15.8 °F 64% 30.31 in 10.0 mi NW 15.0 mph 24.2 mph N/A   Unknown
7:26 PM 24.8 °F 11.5 °F 14.0 °F 64% 30.33 in 10.0 mi NW 17.3 mph 21.9 mph N/A   Unknown
8:06 PM 24.8 °F 13.4 °F 12.2 °F 59% 30.34 in 10.0 mi NW 12.7 mph 18.4 mph N/A   Unknown
8:26 PM 23.0 °F 9.6 °F 12.2 °F 63% 30.35 in 10.0 mi NW 16.1 mph 20.7 mph N/A   Unknown
8:46 PM 21.2 °F 8.3 °F 10.4 °F 63% 30.36 in 10.0 mi NW 13.8 mph 19.6 mph N/A   Unknown
9:06 PM 21.2 °F 6.0 °F 10.4 °F 63% 30.37 in 10.0 mi NNW 19.6 mph 23.0 mph N/A   Unknown
9:26 PM 21.2 °F 8.3 °F 10.4 °F 63% 30.38 in 10.0 mi WNW 13.8 mph - N/A   Unknown
9:46 PM 19.4 °F 4.5 °F 8.6 °F 63% 30.39 in 10.0 mi NW 17.3 mph 24.2 mph N/A   Unknown
10:07 PM 19.4 °F 5.5 °F 8.6 °F 63% 30.40 in 10.0 mi NNW 15.0 mph 24.2 mph N/A   Unknown
10:46 PM 19.4 °F 4.1 °F 8.6 °F 63% 30.43 in 10.0 mi NW 18.4 mph - N/A   Unknown
11:07 PM 17.6 °F 3.7 °F 6.8 °F 63% 30.45 in 10.0 mi NNW 13.8 mph 19.6 mph N/A   Unknown
11:27 PM 17.6 °F 2.7 °F 6.8 °F 63% 30.45 in 10.0 mi NW 16.1 mph 23.0 mph N/A   Unknown
11:47 PM 17.6 °F 3.2 °F 6.8 °F 63% 30.46 in 10.0 mi NW 15.0 mph 19.6 mph N/A   Unknown